26-03-2022, 00:00:07,    338,    0.0,    5.0,   0.00,   0.00, 1027.3,   75.3, -999.0
26-03-2022, 00:00:17,    338,    0.0,    5.0,   0.00,   0.00, 1027.3,   75.5, -999.0
26-03-2022, 00:00:27,    339,    0.0,    5.1,   0.00,   0.00, 1027.3,   75.5, -999.0
26-03-2022, 00:00:37,    338,    0.0,    5.1,   0.00,   0.00, 1027.3,   75.5, -999.0
26-03-2022, 00:00:47,    338,    0.0,    5.1,   0.00,   0.00, 1027.3,   75.5, -999.0
26-03-2022, 00:00:57,    338,    0.0,    5.1,   0.00,   0.00, 1027.3,   75.5, -999.0
26-03-2022, 00:01:07,    338,    0.0,    5.1,   0.00,   0.00, 1027.3,   75.5, -999.0
26-03-2022, 00:01:17,    339,    0.0,    5.1,   0.00,   0.00, 1027.3,   75.5, -999.0
26-03-2022, 00:01:27,    338,    0.0,    5.1,   0.00,   0.00, 1027.3,   75.5, -999.0
26-03-2022, 00:01:37,    338,    0.0,    5.1,   0.00,   0.00, 1027.3,   75.5, -999.0
26-03-2022, 00:01:46,    338,    0.0,    5.1,   0.00,   0.00, 1027.3,   75.5, -999.0
26-03-2022, 00:01:57,    339,    0.0,    5.1,   0.00,   0.00, 1027.3,   75.4, -999.0
26-03-2022, 00:02:07,    338,    0.0,    5.1,   0.00,   0.00, 1027.3,   75.4, -999.0
26-03-2022, 00:02:16,    338,    0.0,    5.1,   0.00,   0.00, 1027.3,   75.4, -999.0
26-03-2022, 00:02:26,    338,    0.0,    5.1,   0.00,   0.00, 1027.3,   75.4, -999.0
26-03-2022, 00:02:37,    339,    0.0,    5.1,   0.00,   0.00, 1027.3,   75.5, -999.0
26-03-2022, 00:02:46,    338,    0.0,    5.0,   0.00,   0.00, 1027.3,   75.6, -999.0
26-03-2022, 00:02:56,    339,    0.0,    5.1,   0.00,   0.00, 1027.3,   75.5, -999.0
26-03-2022, 00:03:06,    338,    0.0,    5.1,   0.00,   0.00, 1027.3,   75.5, -999.0
26-03-2022, 00:03:16,    338,    0.0,    5.0,   0.00,   0.00, 1027.3,   75.5, -999.0
26-03-2022, 00:03:26,    338,    0.0,    5.0,   0.00,   0.00, 1027.3,   75.5, -999.0
26-03-2022, 00:03:36,    339,    0.0,    5.0,   0.00,   0.00, 1027.3,   75.5, -999.0
26-03-2022, 00:03:46,    338,    0.0,    5.1,   0.00,   0.00, 1027.3,   75.5, -999.0
26-03-2022, 00:03:56,    339,    0.0,    5.1,   0.00,   0.00, 1027.3,   75.6, -999.0
26-03-2022, 00:04:06,    338,    0.0,    5.0,   0.00,   0.00, 1027.3,   75.7, -999.0
26-03-2022, 00:04:16,    339,    0.0,    5.1,   0.00,   0.00, 1027.4,   75.7, -999.0
26-03-2022, 00:04:26,    339,    0.0,    5.1,   0.00,   0.00, 1027.3,   75.7, -999.0
26-03-2022, 00:04:36,    338,    0.0,    5.1,   0.00,   0.00, 1027.3,   75.8, -999.0
26-03-2022, 00:04:46,    339,    0.0,    5.0,   0.00,   0.00, 1027.3,   75.7, -999.0
26-03-2022, 00:04:55,    339,    0.0,    5.1,   0.00,   0.00, 1027.3,   75.7, -999.0
26-03-2022, 00:05:06,    338,    0.0,    5.0,   0.00,   0.00, 1027.3,   75.7, -999.0
26-03-2022, 00:05:16,    338,    0.0,    5.1,   0.00,   0.00, 1027.3,   75.7, -999.0
26-03-2022, 00:05:25,    339,    0.0,    5.1,   0.00,   0.00, 1027.3,   75.7, -999.0
26-03-2022, 00:05:36,    338,    0.0,    5.1,   0.00,   0.00, 1027.3,   75.7, -999.0
26-03-2022, 00:05:46,    338,    0.0,    5.0,   0.00,   0.00, 1027.3,   75.7, -999.0
26-03-2022, 00:05:55,    339,    0.0,    4.9,   0.00,   0.00, 1027.3,   75.6, -999.0
26-03-2022, 00:06:05,    339,    0.0,    5.1,   0.00,   0.00, 1027.3,   75.7, -999.0
26-03-2022, 00:06:16,    338,    0.0,    5.1,   0.00,   0.00, 1027.3,   75.7, -999.0
26-03-2022, 00:06:25,    338,    0.0,    5.1,   0.00,   0.00, 1027.3,   75.6, -999.0
26-03-2022, 00:06:35,    339,    0.0,    5.0,   0.00,   0.00, 1027.4,   75.6, -999.0
26-03-2022, 00:06:45,    339,    0.0,    5.1,   0.00,   0.00, 1027.3,   75.7, -999.0
26-03-2022, 00:06:55,    339,    0.0,    5.1,   0.00,   0.00, 1027.4,   75.7, -999.0
26-03-2022, 00:07:05,    338,    0.0,    5.0,   0.00,   0.00, 1027.3,   75.7, -999.0
26-03-2022, 00:07:15,    338,    0.0,    5.0,   0.00,   0.00, 1027.4,   75.7, -999.0
26-03-2022, 00:07:25,    339,    0.0,    5.0,   0.00,   0.00, 1027.4,   75.7, -999.0
26-03-2022, 00:07:35,    339,    0.0,    5.0,   0.00,   0.00, 1027.4,   75.8, -999.0
26-03-2022, 00:07:45,    338,    0.0,    5.0,   0.00,   0.00, 1027.4,   75.7, -999.0
26-03-2022, 00:07:55,    338,    0.0,    5.1,   0.00,   0.00, 1027.4,   75.7, -999.0
26-03-2022, 00:08:05,    338,    0.0,    5.0,   0.00,   0.00, 1027.3,   75.8, -999.0
26-03-2022, 00:08:15,    338,    0.0,    5.1,   0.00,   0.00, 1027.4,   75.8, -999.0
26-03-2022, 00:08:25,    338,    0.0,    5.0,   0.00,   0.00, 1027.4,   75.9, -999.0
26-03-2022, 00:08:34,    339,    0.0,    5.0,   0.00,   0.00, 1027.4,   75.8, -999.0
26-03-2022, 00:08:45,    338,    0.0,    5.1,   0.00,   0.00, 1027.4,   75.7, -999.0
26-03-2022, 00:08:55,    338,    0.0,    4.9,   0.00,   0.00, 1027.4,   75.8, -999.0
26-03-2022, 00:09:04,    338,    0.0,    5.0,   0.00,   0.00, 1027.4,   75.9, -999.0
26-03-2022, 00:09:14,    338,    0.0,    5.0,   0.00,   0.00, 1027.4,   75.8, -999.0
26-03-2022, 00:09:25,    338,    0.0,    4.9,   0.00,   0.00, 1027.4,   75.7, -999.0
26-03-2022, 00:09:34,    338,    0.0,    5.0,   0.00,   0.00, 1027.4,   75.7, -999.0
26-03-2022, 00:09:44,    338,    0.0,    5.0,   0.00,   0.00, 1027.4,   75.7, -999.0
26-03-2022, 00:09:54,    339,    0.0,    5.0,   0.00,   0.00, 1027.4,   75.8, -999.0
26-03-2022, 00:10:04,    338,    0.0,    5.0,   0.00,   0.00, 1027.4,   76.0, -999.0
26-03-2022, 00:10:14,    338,    0.0,    5.0,   0.00,   0.00, 1027.4,   75.9, -999.0
26-03-2022, 00:10:24,    338,    0.0,    5.0,   0.00,   0.00, 1027.4,   75.8, -999.0
26-03-2022, 00:10:34,    338,    0.0,    5.0,   0.00,   0.00, 1027.4,   75.8, -999.0
26-03-2022, 00:10:44,    338,    0.0,    4.9,   0.00,   0.00, 1027.4,   75.9, -999.0
26-03-2022, 00:10:54,    338,    0.0,    4.9,   0.00,   0.00, 1027.3,   75.9, -999.0
26-03-2022, 00:11:04,    339,    0.0,    4.9,   0.00,   0.00, 1027.4,   75.9, -999.0
26-03-2022, 00:11:15,    338,    0.0,    5.0,   0.00,   0.00, 1027.4,   75.9, -999.0
26-03-2022, 00:11:24,    338,    0.0,    5.0,   0.00,   0.00, 1027.4,   76.0, -999.0
26-03-2022, 00:11:34,    338,    0.0,    5.0,   0.00,   0.00, 1027.4,   76.0, -999.0
26-03-2022, 00:11:43,    338,    0.0,    5.0,   0.00,   0.00, 1027.4,   76.0, -999.0
26-03-2022, 00:11:54,    339,    0.0,    5.0,   0.00,   0.00, 1027.4,   76.1, -999.0
26-03-2022, 00:12:04,    338,    0.0,    5.1,   0.00,   0.00, 1027.4,   76.0, -999.0
26-03-2022, 00:12:13,    338,    0.0,    5.0,   0.00,   0.00, 1027.4,   76.0, -999.0
26-03-2022, 00:12:24,    338,    0.0,    5.0,   0.00,   0.00, 1027.4,   75.9, -999.0
26-03-2022, 00:12:33,    338,    0.0,    5.1,   0.00,   0.00, 1027.4,   76.0, -999.0
26-03-2022, 00:12:43,    338,    0.0,    5.1,   0.00,   0.00, 1027.4,   76.0, -999.0
26-03-2022, 00:12:53,    338,    0.0,    5.1,   0.00,   0.00, 1027.4,   76.1, -999.0
26-03-2022, 00:13:03,    338,    0.0,    5.1,   0.00,   0.00, 1027.4,   76.0, -999.0
26-03-2022, 00:13:13,    338,    0.0,    5.1,   0.00,   0.00, 1027.4,   76.0, -999.0
26-03-2022, 00:13:23,    338,    0.0,    5.0,   0.00,   0.00, 1027.4,   75.9, -999.0
26-03-2022, 00:13:33,    339,    0.0,    5.1,   0.00,   0.00, 1027.4,   75.8, -999.0
26-03-2022, 00:13:43,    338,    0.0,    5.0,   0.00,   0.00, 1027.4,   75.7, -999.0
26-03-2022, 00:13:53,    338,    0.0,    5.0,   0.00,   0.00, 1027.4,   75.6, -999.0
26-03-2022, 00:14:03,    338,    0.0,    5.0,   0.00,   0.00, 1027.4,   75.8, -999.0
26-03-2022, 00:14:13,    338,    0.0,    5.1,   0.00,   0.00, 1027.4,   75.7, -999.0
26-03-2022, 00:14:23,    338,    0.0,    5.0,   0.00,   0.00, 1027.4,   75.5, -999.0
26-03-2022, 00:14:33,    338,    0.0,    5.0,   0.00,   0.00, 1027.4,   75.5, -999.0
26-03-2022, 00:14:43,    339,    0.0,    4.9,   0.00,   0.00, 1027.4,   75.6, -999.0
26-03-2022, 00:14:53,    338,    0.0,    4.9,   0.00,   0.00, 1027.4,   75.6, -999.0
26-03-2022, 00:15:03,    338,    0.0,    4.9,   0.00,   0.00, 1027.4,   75.8, -999.0
26-03-2022, 00:15:13,    339,    0.0,    5.0,   0.00,   0.00, 1027.4,   75.8, -999.0
26-03-2022, 00:15:22,    338,    0.0,    5.0,   0.00,   0.00, 1027.4,   76.1, -999.0
26-03-2022, 00:15:33,    338,    0.0,    5.0,   0.00,   0.00, 1027.4,   75.9, -999.0
26-03-2022, 00:15:42,    338,    0.0,    5.0,   0.00,   0.00, 1027.4,   75.9, -999.0
26-03-2022, 00:15:52,    339,    0.0,    4.9,   0.00,   0.00, 1027.4,   75.8, -999.0
26-03-2022, 00:16:02,    339,    0.0,    4.9,   0.00,   0.00, 1027.4,   75.7, -999.0
26-03-2022, 00:16:12,    339,    0.0,    5.0,   0.00,   0.00, 1027.4,   75.8, -999.0
26-03-2022, 00:16:22,    338,    0.0,    5.0,   0.00,   0.00, 1027.4,   75.7, -999.0
26-03-2022, 00:16:32,    339,    0.0,    5.0,   0.00,   0.00, 1027.4,   75.7, -999.0
26-03-2022, 00:16:42,    339,    0.0,    5.0,   0.00,   0.00, 1027.4,   75.8, -999.0
26-03-2022, 00:16:52,    338,    0.0,    5.0,   0.00,   0.00, 1027.4,   75.7, -999.0
26-03-2022, 00:17:02,    338,    0.0,    4.9,   0.00,   0.00, 1027.4,   75.8, -999.0
26-03-2022, 00:17:12,    338,    0.0,    4.8,   0.00,   0.00, 1027.4,   75.9, -999.0
26-03-2022, 00:17:22,    338,    0.0,    5.0,   0.00,   0.00, 1027.4,   76.0, -999.0
26-03-2022, 00:17:32,    338,    0.0,    5.0,   0.00,   0.00, 1027.4,   75.8, -999.0
26-03-2022, 00:17:42,    339,    0.0,    5.0,   0.00,   0.00, 1027.4,   76.0, -999.0
26-03-2022, 00:17:52,    338,    0.0,    4.9,   0.00,   0.00, 1027.4,   75.9, -999.0
26-03-2022, 00:18:02,    338,    0.0,    5.0,   0.00,   0.00, 1027.4,   75.9, -999.0
26-03-2022, 00:18:12,    339,    0.0,    5.1,   0.00,   0.00, 1027.4,   76.0, -999.0
26-03-2022, 00:18:22,    339,    0.0,    4.9,   0.00,   0.00, 1027.4,   76.0, -999.0
26-03-2022, 00:18:31,    338,    0.0,    5.1,   0.00,   0.00, 1027.4,   75.9, -999.0
26-03-2022, 00:18:42,    339,    0.0,    5.0,   0.00,   0.00, 1027.4,   75.9, -999.0
26-03-2022, 00:18:51,    338,    0.0,    5.1,   0.00,   0.00, 1027.4,   75.9, -999.0
26-03-2022, 00:19:01,    338,    0.0,    5.0,   0.00,   0.00, 1027.4,   75.9, -999.0
26-03-2022, 00:19:12,    338,    0.0,    4.9,   0.00,   0.00, 1027.4,   76.0, -999.0
26-03-2022, 00:19:21,    338,    0.0,    5.0,   0.00,   0.00, 1027.4,   76.0, -999.0
26-03-2022, 00:19:31,    338,    0.0,    5.0,   0.00,   0.00, 1027.4,   75.9, -999.0
26-03-2022, 00:19:41,    339,    0.0,    5.0,   0.00,   0.00, 1027.4,   75.9, -999.0
26-03-2022, 00:19:51,    338,    0.0,    5.1,   0.00,   0.00, 1027.4,   75.9, -999.0
26-03-2022, 00:20:01,    338,    0.0,    5.1,   0.00,   0.00, 1027.4,   75.9, -999.0
26-03-2022, 00:20:11,    338,    0.0,    5.1,   0.00,   0.00, 1027.4,   75.8, -999.0
26-03-2022, 00:20:21,    338,    0.0,    5.1,   0.00,   0.00, 1027.4,   75.9, -999.0
26-03-2022, 00:20:31,    338,    0.0,    5.0,   0.00,   0.00, 1027.4,   75.9, -999.0
26-03-2022, 00:20:41,    338,    0.0,    5.1,   0.00,   0.00, 1027.4,   75.8, -999.0
26-03-2022, 00:20:51,    339,    0.0,    5.1,   0.00,   0.00, 1027.4,   75.6, -999.0
26-03-2022, 00:21:01,    338,    0.0,    5.1,   0.00,   0.00, 1027.4,   75.6, -999.0
26-03-2022, 00:21:11,    338,    0.0,    5.1,   0.00,   0.00, 1027.4,   75.5, -999.0
26-03-2022, 00:21:21,    339,    0.0,    5.0,   0.00,   0.00, 1027.4,   75.5, -999.0
26-03-2022, 00:21:31,    338,    0.0,    4.9,   0.00,   0.00, 1027.4,   75.6, -999.0
26-03-2022, 00:21:41,    338,    0.0,    5.1,   0.00,   0.00, 1027.4,   75.6, -999.0
26-03-2022, 00:21:51,    338,    0.0,    5.1,   0.00,   0.00, 1027.4,   75.6, -999.0
26-03-2022, 00:22:00,    338,    0.0,    5.1,   0.00,   0.00, 1027.4,   75.7, -999.0
26-03-2022, 00:22:10,    339,    0.0,    5.1,   0.00,   0.00, 1027.4,   75.6, -999.0
26-03-2022, 00:22:21,    338,    0.0,    5.1,   0.00,   0.00, 1027.4,   75.6, -999.0
26-03-2022, 00:22:30,    338,    0.0,    5.1,   0.00,   0.00, 1027.4,   75.6, -999.0
26-03-2022, 00:22:40,    339,    0.0,    5.0,   0.00,   0.00, 1027.4,   75.6, -999.0
26-03-2022, 00:22:51,    338,    0.0,    5.1,   0.00,   0.00, 1027.4,   75.5, -999.0
26-03-2022, 00:23:00,    338,    0.0,    5.1,   0.00,   0.00, 1027.4,   75.6, -999.0
26-03-2022, 00:23:10,    339,    0.0,    5.2,   0.00,   0.00, 1027.4,   75.5, -999.0
26-03-2022, 00:23:20,    338,    0.0,    5.1,   0.00,   0.00, 1027.4,   75.6, -999.0
26-03-2022, 00:23:30,    338,    0.0,    5.1,   0.00,   0.00, 1027.4,   75.5, -999.0
26-03-2022, 00:23:40,    338,    0.0,    5.0,   0.00,   0.00, 1027.4,   75.6, -999.0
26-03-2022, 00:23:50,    338,    0.0,    5.1,   0.00,   0.00, 1027.4,   75.4, -999.0
26-03-2022, 00:24:00,    338,    0.0,    5.1,   0.00,   0.00, 1027.4,   75.4, -999.0
26-03-2022, 00:24:10,    338,    0.0,    5.1,   0.00,   0.00, 1027.4,   75.3, -999.0
26-03-2022, 00:24:20,    338,    0.0,    5.1,   0.00,   0.00, 1027.4,   75.3, -999.0
26-03-2022, 00:24:30,    339,    0.0,    5.1,   0.00,   0.00, 1027.4,   75.2, -999.0
26-03-2022, 00:24:40,    338,    0.0,    5.2,   0.00,   0.00, 1027.4,   75.4, -999.0
26-03-2022, 00:24:50,    338,    0.0,    5.1,   0.00,   0.00, 1027.4,   75.4, -999.0
26-03-2022, 00:25:00,    338,    0.0,    5.1,   0.00,   0.00, 1027.4,   75.4, -999.0
26-03-2022, 00:25:09,    338,    0.0,    5.0,   0.00,   0.00, 1027.4,   75.5, -999.0
26-03-2022, 00:25:20,    339,    0.0,    5.0,   0.00,   0.00, 1027.4,   75.4, -999.0
26-03-2022, 00:25:30,    338,    0.0,    5.1,   0.00,   0.00, 1027.4,   75.4, -999.0
26-03-2022, 00:25:39,    338,    0.0,    5.1,   0.00,   0.00, 1027.4,   75.3, -999.0
26-03-2022, 00:25:49,    338,    0.0,    5.1,   0.00,   0.00, 1027.4,   75.3, -999.0
26-03-2022, 00:26:00,    338,    0.0,    5.1,   0.00,   0.00, 1027.4,   75.5, -999.0
26-03-2022, 00:26:09,    339,    0.0,    5.1,   0.00,   0.00, 1027.4,   75.5, -999.0
26-03-2022, 00:26:19,    338,    0.0,    5.1,   0.00,   0.00, 1027.4,   75.6, -999.0
26-03-2022, 00:26:29,    338,    0.0,    5.1,   0.00,   0.00, 1027.3,   75.4, -999.0
26-03-2022, 00:26:39,    338,    0.0,    5.1,   0.00,   0.00, 1027.4,   75.4, -999.0
26-03-2022, 00:26:49,    339,    0.0,    5.1,   0.00,   0.00, 1027.4,   75.4, -999.0
26-03-2022, 00:26:59,    339,    0.0,    5.1,   0.00,   0.00, 1027.4,   75.4, -999.0
26-03-2022, 00:27:09,    338,    0.0,    5.0,   0.00,   0.00, 1027.4,   75.3, -999.0
26-03-2022, 00:27:19,    339,    0.0,    5.2,   0.00,   0.00, 1027.4,   75.3, -999.0
26-03-2022, 00:27:29,    339,    0.0,    5.1,   0.00,   0.00, 1027.4,   75.4, -999.0
26-03-2022, 00:27:39,    338,    0.0,    5.0,   0.00,   0.00, 1027.4,   75.5, -999.0
26-03-2022, 00:27:49,    338,    0.0,    5.1,   0.00,   0.00, 1027.4,   75.5, -999.0
26-03-2022, 00:27:59,    338,    0.0,    5.1,   0.00,   0.00, 1027.4,   75.5, -999.0
26-03-2022, 00:28:09,    338,    0.0,    5.1,   0.00,   0.00, 1027.4,   75.5, -999.0
26-03-2022, 00:28:18,    339,    0.0,    5.0,   0.00,   0.00, 1027.4,   75.5, -999.0
26-03-2022, 00:28:29,    339,    0.0,    5.1,   0.00,   0.00, 1027.4,   75.4, -999.0
26-03-2022, 00:28:39,    339,    0.0,    5.1,   0.00,   0.00, 1027.4,   75.5, -999.0
26-03-2022, 00:28:48,    339,    0.0,    5.1,   0.00,   0.00, 1027.4,   75.6, -999.0
26-03-2022, 00:28:58,    339,    0.0,    5.0,   0.00,   0.00, 1027.4,   75.5, -999.0
26-03-2022, 00:29:09,    339,    0.0,    5.0,   0.00,   0.00, 1027.4,   75.5, -999.0
26-03-2022, 00:29:18,    338,    0.0,    4.9,   0.00,   0.00, 1027.4,   75.5, -999.0
26-03-2022, 00:29:28,    338,    0.0,    5.1,   0.00,   0.00, 1027.4,   75.5, -999.0
26-03-2022, 00:29:38,    338,    0.0,    5.1,   0.00,   0.00, 1027.4,   75.4, -999.0
26-03-2022, 00:29:48,    338,    0.0,    5.1,   0.00,   0.00, 1027.4,   75.4, -999.0
26-03-2022, 00:29:58,    339,    0.0,    5.0,   0.00,   0.00, 1027.4,   75.5, -999.0
26-03-2022, 00:30:08,    338,    0.0,    5.1,   0.00,   0.00, 1027.4,   75.6, -999.0
26-03-2022, 00:30:18,    338,    0.0,    5.1,   0.00,   0.00, 1027.4,   75.5, -999.0
26-03-2022, 00:30:28,    338,    0.0,    5.0,   0.00,   0.00, 1027.4,   75.4, -999.0
26-03-2022, 00:30:38,    337,    0.0,    5.0,   0.00,   0.00, 1027.4,   75.4, -999.0
26-03-2022, 00:30:48,    338,    0.0,    5.0,   0.00,   0.00, 1027.4,   75.5, -999.0
26-03-2022, 00:30:58,    338,    0.0,    5.0,   0.00,   0.00, 1027.4,   75.3, -999.0
26-03-2022, 00:31:08,    338,    0.0,    4.8,   0.00,   0.00, 1027.4,   75.4, -999.0
26-03-2022, 00:31:18,    338,    0.0,    5.0,   0.00,   0.00, 1027.4,   75.5, -999.0
26-03-2022, 00:31:27,    338,    0.0,    5.0,   0.00,   0.00, 1027.4,   75.5, -999.0
26-03-2022, 00:31:38,    338,    0.0,    5.0,   0.00,   0.00, 1027.4,   75.5, -999.0
26-03-2022, 00:31:48,    338,    0.0,    5.0,   0.00,   0.00, 1027.4,   75.6, -999.0
26-03-2022, 00:31:57,    338,    0.0,    5.0,   0.00,   0.00, 1027.4,   75.6, -999.0
26-03-2022, 00:32:08,    339,    0.0,    5.0,   0.00,   0.00, 1027.4,   75.6, -999.0
26-03-2022, 00:32:18,    339,    0.0,    5.0,   0.00,   0.00, 1027.4,   75.6, -999.0
26-03-2022, 00:32:27,    339,    0.0,    5.0,   0.00,   0.00, 1027.4,   75.6, -999.0
26-03-2022, 00:32:37,    338,    0.0,    5.0,   0.00,   0.00, 1027.4,   75.7, -999.0
26-03-2022, 00:32:48,    338,    0.0,    5.0,   0.00,   0.00, 1027.4,   75.5, -999.0
26-03-2022, 00:32:57,    338,    0.0,    5.0,   0.00,   0.00, 1027.4,   75.5, -999.0
26-03-2022, 00:33:07,    338,    0.0,    5.0,   0.00,   0.00, 1027.4,   75.7, -999.0
26-03-2022, 00:33:17,    338,    0.0,    4.9,   0.00,   0.00, 1027.4,   75.5, -999.0
26-03-2022, 00:33:27,    338,    0.0,    4.9,   0.00,   0.00, 1027.4,   75.6, -999.0
26-03-2022, 00:33:37,    338,    0.0,    4.9,   0.00,   0.00, 1027.4,   75.5, -999.0
26-03-2022, 00:33:47,    339,    0.0,    4.9,   0.00,   0.00, 1027.4,   75.5, -999.0
26-03-2022, 00:33:57,    338,    0.0,    4.9,   0.00,   0.00, 1027.4,   75.6, -999.0
26-03-2022, 00:34:07,    339,    0.0,    5.0,   0.00,   0.00, 1027.4,   75.6, -999.0
26-03-2022, 00:34:17,    338,    0.0,    5.0,   0.00,   0.00, 1027.4,   75.6, -999.0
26-03-2022, 00:34:27,    338,    0.0,    4.9,   0.00,   0.00, 1027.4,   75.7, -999.0
26-03-2022, 00:34:37,    339,    0.0,    4.9,   0.00,   0.00, 1027.4,   75.6, -999.0
26-03-2022, 00:34:47,    338,    0.0,    4.9,   0.00,   0.00, 1027.4,   75.7, -999.0
26-03-2022, 00:34:57,    338,    0.0,    4.9,   0.00,   0.00, 1027.4,   75.7, -999.0
26-03-2022, 00:35:06,    339,    0.0,    4.9,   0.00,   0.00, 1027.4,   75.7, -999.0
26-03-2022, 00:35:17,    338,    0.0,    4.9,   0.00,   0.00, 1027.4,   75.7, -999.0
26-03-2022, 00:35:27,    338,    0.0,    4.9,   0.00,   0.00, 1027.4,   75.8, -999.0
26-03-2022, 00:35:36,    339,    0.0,    4.9,   0.00,   0.00, 1027.4,   75.9, -999.0
26-03-2022, 00:35:46,    339,    0.0,    4.9,   0.00,   0.00, 1027.3,   75.9, -999.0
26-03-2022, 00:35:57,    338,    0.0,    4.9,   0.00,   0.00, 1027.4,   75.8, -999.0
26-03-2022, 00:36:06,    338,    0.0,    4.9,   0.00,   0.00, 1027.4,   75.8, -999.0
26-03-2022, 00:36:16,    338,    0.0,    4.9,   0.00,   0.00, 1027.4,   75.9, -999.0
26-03-2022, 00:36:26,    339,    0.0,    4.9,   0.00,   0.00, 1027.4,   76.0, -999.0
26-03-2022, 00:36:36,    338,    0.0,    4.9,   0.00,   0.00, 1027.4,   75.9, -999.0
26-03-2022, 00:36:46,    338,    0.0,    4.9,   0.00,   0.00, 1027.4,   75.9, -999.0
26-03-2022, 00:36:56,    338,    0.0,    4.8,   0.00,   0.00, 1027.4,   75.8, -999.0
26-03-2022, 00:37:06,    338,    0.0,    4.9,   0.00,   0.00, 1027.4,   75.8, -999.0
26-03-2022, 00:37:16,    338,    0.0,    4.9,   0.00,   0.00, 1027.4,   75.9, -999.0
26-03-2022, 00:37:26,    338,    0.0,    4.9,   0.00,   0.00, 1027.4,   75.9, -999.0
26-03-2022, 00:37:36,    339,    0.0,    4.9,   0.00,   0.00, 1027.4,   75.9, -999.0
26-03-2022, 00:37:46,    339,    0.0,    4.8,   0.00,   0.00, 1027.4,   75.9, -999.0
26-03-2022, 00:37:56,    338,    0.0,    4.9,   0.00,   0.00, 1027.4,   76.0, -999.0
26-03-2022, 00:38:06,    338,    0.0,    4.8,   0.00,   0.00, 1027.4,   76.1, -999.0
26-03-2022, 00:38:15,    339,    0.0,    4.9,   0.00,   0.00, 1027.4,   75.9, -999.0
26-03-2022, 00:38:26,    338,    0.0,    4.9,   0.00,   0.00, 1027.4,   75.9, -999.0
26-03-2022, 00:38:36,    339,    0.0,    4.9,   0.00,   0.00, 1027.4,   76.0, -999.0
26-03-2022, 00:38:45,    338,    0.0,    4.9,   0.00,   0.00, 1027.4,   76.0, -999.0
26-03-2022, 00:38:56,    338,    0.0,    4.8,   0.00,   0.00, 1027.4,   76.0, -999.0
26-03-2022, 00:39:06,    338,    0.0,    4.9,   0.00,   0.00, 1027.4,   76.0, -999.0
26-03-2022, 00:39:15,    339,    0.0,    4.9,   0.00,   0.00, 1027.4,   76.0, -999.0
26-03-2022, 00:39:25,    339,    0.0,    4.9,   0.00,   0.00, 1027.4,   76.1, -999.0
26-03-2022, 00:39:35,    339,    0.0,    4.9,   0.00,   0.00, 1027.4,   76.1, -999.0
26-03-2022, 00:39:45,    339,    0.0,    5.0,   0.00,   0.00, 1027.4,   76.0, -999.0
26-03-2022, 00:39:55,    338,    0.0,    4.9,   0.00,   0.00, 1027.4,   76.1, -999.0
26-03-2022, 00:40:05,    338,    0.0,    4.9,   0.00,   0.00, 1027.4,   76.1, -999.0
26-03-2022, 00:40:15,    338,    0.0,    4.8,   0.00,   0.00, 1027.4,   76.1, -999.0
26-03-2022, 00:40:25,    338,    0.0,    4.9,   0.00,   0.00, 1027.4,   76.1, -999.0
26-03-2022, 00:40:35,    338,    0.0,    4.9,   0.00,   0.00, 1027.4,   76.1, -999.0
26-03-2022, 00:40:45,    339,    0.0,    4.9,   0.00,   0.00, 1027.4,   76.0, -999.0
26-03-2022, 00:40:55,    339,    0.0,    4.9,   0.00,   0.00, 1027.4,   76.0, -999.0
26-03-2022, 00:41:05,    338,    0.0,    4.9,   0.00,   0.00, 1027.4,   76.0, -999.0
26-03-2022, 00:41:15,    339,    0.0,    5.0,   0.00,   0.00, 1027.4,   76.0, -999.0
26-03-2022, 00:41:25,    338,    0.0,    4.9,   0.00,   0.00, 1027.4,   75.9, -999.0
26-03-2022, 00:41:35,    338,    0.0,    4.8,   0.00,   0.00, 1027.4,   75.9, -999.0
26-03-2022, 00:41:45,    339,    0.0,    4.8,   0.00,   0.00, 1027.4,   75.8, -999.0
26-03-2022, 00:41:54,    338,    0.0,    4.9,   0.00,   0.00, 1027.4,   75.9, -999.0
26-03-2022, 00:42:05,    338,    0.0,    4.9,   0.00,   0.00, 1027.4,   75.9, -999.0
26-03-2022, 00:42:14,    338,    0.0,    4.9,   0.00,   0.00, 1027.4,   75.9, -999.0
26-03-2022, 00:42:24,    338,    0.0,    4.9,   0.00,   0.00, 1027.4,   75.9, -999.0
26-03-2022, 00:42:34,    338,    0.0,    4.9,   0.00,   0.00, 1027.3,   75.9, -999.0
26-03-2022, 00:42:44,    338,    0.0,    4.9,   0.00,   0.00, 1027.3,   75.8, -999.0
26-03-2022, 00:42:54,    338,    0.0,    4.9,   0.00,   0.00, 1027.3,   75.7, -999.0
26-03-2022, 00:43:04,    338,    0.0,    4.9,   0.00,   0.00, 1027.3,   75.8, -999.0
26-03-2022, 00:43:14,    338,    0.0,    4.9,   0.00,   0.00, 1027.3,   75.9, -999.0
26-03-2022, 00:43:24,    339,    0.0,    4.8,   0.00,   0.00, 1027.3,   75.7, -999.0
26-03-2022, 00:43:34,    338,    0.0,    4.9,   0.00,   0.00, 1027.4,   75.7, -999.0
26-03-2022, 00:43:44,    339,    0.0,    4.9,   0.00,   0.00, 1027.3,   75.7, -999.0
26-03-2022, 00:43:54,    338,    0.0,    4.9,   0.00,   0.00, 1027.4,   75.7, -999.0
26-03-2022, 00:44:04,    339,    0.0,    4.9,   0.00,   0.00, 1027.4,   75.8, -999.0
26-03-2022, 00:44:14,    338,    0.0,    4.9,   0.00,   0.00, 1027.3,   75.7, -999.0
26-03-2022, 00:44:24,    338,    0.0,    4.9,   0.00,   0.00, 1027.3,   75.8, -999.0
26-03-2022, 00:44:34,    338,    0.0,    4.8,   0.00,   0.00, 1027.4,   75.9, -999.0
26-03-2022, 00:44:44,    338,    0.0,    4.9,   0.00,   0.00, 1027.4,   75.9, -999.0
26-03-2022, 00:44:54,    339,    0.0,    4.9,   0.00,   0.00, 1027.3,   75.9, -999.0
26-03-2022, 00:45:03,    338,    0.0,    4.9,   0.00,   0.00, 1027.3,   75.9, -999.0
26-03-2022, 00:45:14,    338,    0.0,    4.9,   0.00,   0.00, 1027.4,   76.0, -999.0
26-03-2022, 00:45:23,    338,    0.0,    4.8,   0.00,   0.00, 1027.4,   76.0, -999.0
26-03-2022, 00:45:33,    338,    0.0,    4.8,   0.00,   0.00, 1027.4,   76.1, -999.0
26-03-2022, 00:45:44,    339,    0.0,    4.9,   0.00,   0.00, 1027.4,   76.0, -999.0
26-03-2022, 00:45:53,    338,    0.0,    4.9,   0.00,   0.00, 1027.3,   76.0, -999.0
26-03-2022, 00:46:03,    339,    0.0,    4.8,   0.00,   0.00, 1027.3,   76.0, -999.0
26-03-2022, 00:46:13,    338,    0.0,    4.8,   0.00,   0.00, 1027.3,   76.1, -999.0
26-03-2022, 00:46:23,    338,    0.0,    4.9,   0.00,   0.00, 1027.3,   76.0, -999.0
26-03-2022, 00:46:33,    339,    0.0,    4.8,   0.00,   0.00, 1027.3,   76.0, -999.0
26-03-2022, 00:46:43,    338,    0.0,    4.9,   0.00,   0.00, 1027.3,   76.0, -999.0